Regional Weather Roundup
Issued by NWS New Orleans/Baton Rouge, LA

Home | Current Version | Previous Version | Graphics & Text | Print | Product List | Glossary On
Versions: 1 2 3 4 5 6 7 8 9 10 11 12 13 14 15 16 17 18 19 20 21 22 23 24 25 26 27 28 29 30 31 32 33 34 35 36 37 38 39 40 41 42 43 44 45 46 47 48 49 50
732
ASUS44 KLIX 010701
RWRLIX
NEW ORLEANS REGIONAL WEATHER ROUNDUP
NATIONAL WEATHER SERVICE NEW ORLEANS LA
100 AM CST SUN FEB 01 2015

NOTE: "FAIR" INDICATES FEW OR NO CLOUDS BELOW 12,000 FEET WITH NO
      SIGNIFICANT WEATHER AND/OR OBSTRUCTIONS TO VISIBILITY.
      SKY/WX - SKY CONDITION AND SIGNIFICANT WEATHER.
      TMP - AIR TEMPERATURE.     DP    - DEWPOINT TEMPERATURE.
      RH  - RELATIVE HUMIDITY.   PRES  - PRESSURE.
      HI  - HEAT INDEX.          WCI   - WIND CHILL INDEX.

*  THESE STATIONS ARE NOT NWS OR FAA STATIONS AND ARE NOT UNDER
   NWS QUALITY CONTROL.

LAZ038-040-048-061>063-065>067-069-010800-
SOUTHEAST LOUISIANA

CITY           SKY/WX    TMP DP  RH WIND       PRES   REMARKS
N.O. AUDUBON   NOT AVBL
N.O. INTL ARPT CLOUDY    60  51  72 SE9       30.09F
N.O. LAKEFRONT CLOUDY    60  52  74 E13       30.10F
N.O. DOWNTOWN* NOT AVBL
SLIDELL        MOCLDY    54  50  86 E6        30.10F
BATON ROUGE    MOCLDY    55  49  80 E10       30.07F
BOOTHVILLE     CLOUDY    58  53  84 SE7       30.11F
BELLE CHASSE   CLOUDY    59  52  77 E9        30.09F
BOGALUSA*        N/A     53  47  81 SE5       30.13F
GALLIANO*      NOT AVBL
NEW ROADS*     NOT AVBL
GONZALES*      NOT AVBL
HAMMOND*       NOT AVBL
HOUMA*         CLOUDY    58  55  89 E5        30.08F
PORT FOURCHON* CLOUDY    66  59  77 SE13G20   30.10F

$$

MSZ070-080>082-010800-
SOUTHERN MISSISSIPPI

CITY           SKY/WX    TMP DP  RH WIND       PRES   REMARKS
MCCOMB         CLOUDY    51  46  83 SE7       30.09F
GULFPORT       PTCLDY    52  49  89 E7        30.13F
BILOXI         PTCLDY    52  50  93 E8        30.13F
PASCAGOULA     PTCLDY    41  41 100 CALM      30.16F FOG

$$

COASTAL OBSERVATIONS
LAKE AND NEARSHORE STATIONS

STATION/POSITION TIME  TEMP    WIND        PRES    WAVE
                       AIR SEA DIR/SP/G            HT/PER
                 (UTC) (F)     (DEG/KT/KT) (MB)    (FT/S)
PASCAGOULA       0600   58     110/  4/  6 1020.8
WAVELAND YACHT   0600   52      60/  7/  8 1019.4
GRAND ISLE       0600   63 63  120/  6/ 12 1019.2
SOUTHWEST PASS   0600   65 49  140/ 16/ 19 1019.7
NEW CANAL        0600   58 55  120/  1/  4 1019.5
SHELL BEACH      0600   59 56  110/ 11/ 13 1019.5

OFFSHORE STATIONS

STATION/POSITION TIME  TEMP    WIND        PRES    WAVE
                       AIR SEA DIR/SP/G            HT/PER
                 (UTC) (F)     (DEG/KT/KT) (MB)    (FT/S)
64 S DAUPHIN ISL 0631   66 69  150/ 17/ 19 1020.8    5/ 6

$$




USA.gov is the U.S. government's official web portal to all federal, state and local government web resources and services.